Weather History for Lakeville, MN

Change the Weather History Date:

Friday, October 14, 2011

  Actual Average Record
Temperature  
Mean Temperature 50 °F -  
Max Temperature 55 °F 60 °F 83 °F (1953)
Min Temperature 44 °F 39 °F 28 °F (1970)
Degree Days  
Heating Degree Days 16    
Moisture  
Dew Point 40 °F    
Average Humidity 73    
Maximum Humidity 93    
Minimum Humidity 51    
Precipitation  
Precipitation 0.00 in - - ()
Sea Level Pressure  
Sea Level Pressure 29.69 in    
Wind  
Wind Speed 13 mph (WNW)    
Max Wind Speed 25 mph    
Max Gust Speed 33 mph    
Visibility 10 miles    
Events      
Averages and records for this station are not official NWS values.
T = Trace of Precipitation, MM = Missing Value Source: NWS Daily Summary

Daily Weather History Graph

Daily Weather History Graph

Search for Another Location

Airport:

Trip Planner

Search our weather history database for the weather conditions in past years. The results will help you decide how hot, cold, wet, or windy it might be!

Date:

Astronomy

Oct. 14, 2011 Rise Set
Actual Time 7:26 AM CDT 6:30 PM CDT
Civil Twilight 6:57 AM CDT 6:59 PM CDT
Nautical Twilight 6:23 AM CDT 7:33 PM CDT
Astronomical Twilight 5:49 AM CDT 8:07 PM CDT
Moon 7:35 PM CDT (10/14) 10:04 AM CDT (10/14)
Length of Visible Light 12h 02m
Length of Day
11h 03m
Waning Gibbous, 94% of the Moon is Illuminated
Oct 14
Waning Gibbous
Oct 19
Last Quarter
Oct 26
New
Nov 2
First Quarter
Nov 10
Full

Hourly Weather History & Observations

Time (CDT) Temp. Windchill Dew Point Humidity Pressure Visibility Wind Dir Wind Speed Gust Speed Precip Events Conditions
12:33 AM 46.4 °F 42.4 °F 42.8 °F 87% 29.64 in 10.0 mi West 8.1 mph - N/A   Overcast
12:53 AM 46.4 °F 42.4 °F 42.8 °F 87% 29.64 in 10.0 mi West 8.1 mph - N/A   Overcast
1:13 AM 46.4 °F 43.5 °F 42.8 °F 87% 29.64 in 10.0 mi West 5.8 mph - N/A   Overcast
1:33 AM 46.4 °F 42.9 °F 42.8 °F 87% 29.64 in 10.0 mi West 6.9 mph - N/A   Overcast
1:53 AM 46.4 °F 42.4 °F 42.8 °F 87% 29.63 in 10.0 mi West 8.1 mph - N/A   Overcast
2:13 AM 46.4 °F 41.9 °F 42.8 °F 87% 29.64 in 10.0 mi West 9.2 mph - N/A   Overcast
2:33 AM 46.4 °F 42.9 °F 42.8 °F 87% 29.64 in 10.0 mi West 6.9 mph - N/A   Mostly Cloudy
2:53 AM 46.4 °F 42.4 °F 42.8 °F 87% 29.64 in 10.0 mi West 8.1 mph - N/A   Mostly Cloudy
3:13 AM 46.4 °F 41.9 °F 42.8 °F 87% 29.64 in 10.0 mi West 9.2 mph - N/A   Scattered Clouds
3:33 AM 46.4 °F 42.9 °F 42.8 °F 87% 29.64 in 10.0 mi West 6.9 mph - N/A   Clear
3:53 AM 44.6 °F 40.7 °F 42.8 °F 93% 29.64 in 10.0 mi West 6.9 mph - N/A   Scattered Clouds
4:13 AM 46.4 °F 41.9 °F 44.6 °F 93% 29.65 in 10.0 mi West 9.2 mph - N/A   Mostly Cloudy
4:33 AM 46.4 °F 41.1 °F 44.6 °F 93% 29.65 in 10.0 mi West 11.5 mph - N/A   Overcast
4:53 AM 46.4 °F 41.5 °F 44.6 °F 93% 29.65 in 10.0 mi West 10.4 mph - N/A   Overcast
5:13 AM 46.4 °F 41.5 °F 44.6 °F 93% 29.65 in 10.0 mi WNW 10.4 mph - N/A   Overcast
5:33 AM 46.4 °F 41.1 °F 44.6 °F 93% 29.65 in 10.0 mi WNW 11.5 mph 16.1 mph N/A   Overcast
5:53 AM 46.4 °F 41.1 °F 44.6 °F 93% 29.66 in 10.0 mi WNW 11.5 mph 16.1 mph N/A   Overcast
6:13 AM 46.4 °F 41.9 °F 44.6 °F 93% 29.66 in 10.0 mi WNW 9.2 mph - N/A   Mostly Cloudy
6:33 AM 46.4 °F 41.9 °F 44.6 °F 93% 29.66 in 10.0 mi WNW 9.2 mph - N/A   Overcast
6:53 AM 46.4 °F 40.7 °F 42.8 °F 87% 29.66 in 10.0 mi WNW 12.7 mph - N/A   Mostly Cloudy
7:13 AM 46.4 °F 40.4 °F 42.8 °F 87% 29.66 in 10.0 mi WNW 13.8 mph 20.7 mph N/A   Mostly Cloudy
7:33 AM 46.4 °F 41.1 °F 42.8 °F 87% 29.66 in 10.0 mi West 11.5 mph 18.4 mph N/A   Mostly Cloudy
8:13 AM 46.4 °F 40.1 °F 42.8 °F 87% 29.67 in 10.0 mi WNW 15.0 mph 21.9 mph N/A   Mostly Cloudy
8:33 AM 46.4 °F 39.2 °F 41.0 °F 81% 29.68 in 10.0 mi WNW 18.4 mph 26.5 mph N/A   Scattered Clouds
8:53 AM 46.4 °F 39.2 °F 39.2 °F 76% 29.68 in 10.0 mi NW 18.4 mph 26.5 mph N/A   Clear
9:13 AM 46.4 °F 39.5 °F 39.2 °F 76% 29.69 in 10.0 mi NW 17.3 mph 28.8 mph N/A   Clear
9:33 AM 46.4 °F 39.0 °F 37.4 °F 71% 29.69 in 10.0 mi WNW 19.6 mph 24.2 mph N/A   Scattered Clouds
9:53 AM 48.2 °F - 37.4 °F 66% 29.70 in 10.0 mi NW 17.3 mph - N/A   Scattered Clouds
10:12 AM 48.2 °F - 39.2 °F 71% 29.70 in 10.0 mi WNW 16.1 mph - N/A   Scattered Clouds
10:33 AM 48.2 °F - 39.2 °F 71% 29.71 in 10.0 mi NW 20.7 mph 27.6 mph N/A   Scattered Clouds
10:53 AM 50.0 °F - 37.4 °F 62% 29.71 in 10.0 mi NW 18.4 mph 27.6 mph N/A   Clear
11:13 AM 50.0 °F - 37.4 °F 62% 29.71 in 10.0 mi NW 23.0 mph 32.2 mph N/A   Clear
11:52 AM 51.8 °F - 37.4 °F 58% 29.72 in 10.0 mi NW 17.3 mph 26.5 mph N/A   Scattered Clouds
12:13 PM 51.8 °F - 37.4 °F 58% 29.72 in 10.0 mi WNW 17.3 mph 23.0 mph N/A   Scattered Clouds
12:33 PM 51.8 °F - 37.4 °F 58% 29.72 in 10.0 mi NW 21.9 mph 28.8 mph N/A   Scattered Clouds
12:53 PM 51.8 °F - 37.4 °F 58% 29.71 in 10.0 mi WNW 21.9 mph 29.9 mph N/A   Clear
1:12 PM 53.6 °F - 37.4 °F 54% 29.71 in 10.0 mi WNW 17.3 mph 26.5 mph N/A   Scattered Clouds
1:33 PM 53.6 °F - 37.4 °F 54% 29.71 in 10.0 mi WNW 21.9 mph 28.8 mph N/A   Scattered Clouds
1:53 PM 53.6 °F - 37.4 °F 54% 29.71 in 10.0 mi WNW 24.2 mph 28.8 mph N/A   Scattered Clouds
2:12 PM 53.6 °F - 37.4 °F 54% 29.71 in 10.0 mi WNW 24.2 mph 31.1 mph N/A   Scattered Clouds
2:33 PM 53.6 °F - 37.4 °F 54% 29.71 in 10.0 mi WNW 23.0 mph 32.2 mph N/A   Scattered Clouds
2:53 PM 53.6 °F - 37.4 °F 54% 29.71 in 10.0 mi WNW 25.3 mph 33.4 mph N/A   Scattered Clouds
3:12 PM 55.4 °F - 37.4 °F 51% 29.72 in 10.0 mi NW 21.9 mph 29.9 mph N/A   Scattered Clouds
3:33 PM 53.6 °F - 37.4 °F 54% 29.73 in 10.0 mi NW 25.3 mph 29.9 mph N/A   Mostly Cloudy
3:53 PM 53.6 °F - 37.4 °F 54% 29.73 in 10.0 mi WNW 21.9 mph 28.8 mph N/A   Mostly Cloudy
4:12 PM 53.6 °F - 37.4 °F 54% 29.73 in 10.0 mi WNW 21.9 mph 27.6 mph N/A   Overcast
4:33 PM 53.6 °F - 37.4 °F 54% 29.74 in 10.0 mi WNW 18.4 mph 27.6 mph N/A   Overcast
4:53 PM 53.6 °F - 37.4 °F 54% 29.74 in 10.0 mi WNW 17.3 mph 25.3 mph N/A   Overcast
5:12 PM 53.6 °F - 37.4 °F 54% 29.74 in 10.0 mi WNW 19.6 mph 32.2 mph N/A   Scattered Clouds
5:33 PM 53.6 °F - 37.4 °F 54% 29.74 in 10.0 mi WNW 18.4 mph 29.9 mph N/A   Scattered Clouds
5:53 PM 53.6 °F - 37.4 °F 54% 29.74 in 10.0 mi West 16.1 mph 21.9 mph N/A   Mostly Cloudy
6:13 PM 51.8 °F - 39.2 °F 62% 29.74 in 10.0 mi West 20.7 mph 28.8 mph N/A   Scattered Clouds
6:33 PM 50.0 °F - 39.2 °F 66% 29.74 in 10.0 mi West 25.3 mph 29.9 mph N/A   Clear
6:53 PM 50.0 °F - 41.0 °F 71% 29.75 in 10.0 mi WNW 23.0 mph 27.6 mph N/A   Clear
7:12 PM 48.2 °F - 41.0 °F 76% 29.76 in 10.0 mi West 13.8 mph - N/A   Clear
7:33 PM 48.2 °F - 41.0 °F 76% 29.76 in 10.0 mi West 17.3 mph 23.0 mph N/A   Clear
7:53 PM 48.2 °F - 42.8 °F 82% 29.77 in 10.0 mi West 17.3 mph 23.0 mph N/A   Mostly Cloudy
8:12 PM 48.2 °F - 42.8 °F 82% 29.77 in 10.0 mi West 16.1 mph 21.9 mph N/A   Scattered Clouds
8:33 PM 48.2 °F - 41.0 °F 76% 29.77 in 10.0 mi West 15.0 mph 21.9 mph N/A   Clear
8:53 PM 48.2 °F - 41.0 °F 76% 29.77 in 10.0 mi WNW 17.3 mph - N/A   Clear
9:12 PM 48.2 °F - 41.0 °F 76% 29.78 in 10.0 mi WNW 17.3 mph 23.0 mph N/A   Clear
9:33 PM 46.4 °F 39.8 °F 39.2 °F 76% 29.79 in 10.0 mi WNW 16.1 mph 23.0 mph N/A   Clear
9:53 PM 46.4 °F 40.1 °F 39.2 °F 76% 29.80 in 10.0 mi WNW 15.0 mph - N/A   Clear
10:12 PM 46.4 °F 40.1 °F 39.2 °F 76% 29.80 in 10.0 mi West 15.0 mph - N/A   Clear
10:33 PM 46.4 °F 40.1 °F 39.2 °F 76% 29.81 in 10.0 mi West 15.0 mph 20.7 mph N/A   Clear
10:52 PM 46.4 °F 40.4 °F 39.2 °F 76% 29.81 in 10.0 mi West 13.8 mph - N/A   Clear
11:13 PM 46.4 °F 40.4 °F 39.2 °F 76% 29.81 in 10.0 mi West 13.8 mph - N/A   Clear
11:33 PM 44.6 °F 38.4 °F 37.4 °F 76% 29.81 in 10.0 mi WNW 12.7 mph - N/A   Clear
11:52 PM 44.6 °F 38.4 °F 37.4 °F 76% 29.81 in 10.0 mi WNW 12.7 mph 19.6 mph N/A   Clear